Regional Weather Roundup
Issued by NWS

Home | Current Version | Previous Version | Graphics & Text | Print | Product List | Glossary On
Versions: 1 2 3 4 5 6 7 8 9 10 11 12 13 14 15 16 17 18 19 20 21 22 23 24 25 26 27 28 29 30 31 32 33 34 35 36 37 38 39 40 41 42 43 44 45 46 47 48 49 50
000
ASUS43 KDTX 180201
RWRMI
MICHIGAN HOURLY REGIONAL WEATHER ROUNDUP
NATIONAL WEATHER SERVICE DETROIT/PONTIAC MI
1000 PM EDT THU APR 17 2014

NOTE: "FAIR" INDICATES FEW OR NO CLOUDS BELOW 12,000 FEET WITH NO
SIGNIFICANT WEATHER AND/OR OBSTRUCTION TO VISIBILITY.

MIZ047>049-052>055-059>063-066>070-074>076-081>083-180300-
SOUTHEAST LOWER MICHIGAN

CITY           SKY/WX    TMP DP  RH WIND       PRES   REMARKS
ADRIAN         MOCLDY    51  38  60 S6        30.26R
ALMA           CLOUDY    52  37  56 W6        30.23R
ANN ARBOR      MOCLDY    55  31  39 S7        30.24R
BAD AXE        MOCLDY    52  37  56 S12       30.22R
CARO           MOCLDY    56  35  44 S7        30.21R
DETROIT CITY   PTCLDY    52  35  52 S5        30.26R
DETROIT        MOCLDY    53  38  56 SE5       30.26R
FLINT          MOCLDY    57  31  37 S6        30.22R
GROSSE ILE     PTCLDY    52  37  58 SE5       30.25R
HILLSDALE      MOCLDY    56  32  40 S3        30.25R
HOWELL         MOCLDY    57  30  35 S3        30.23R

CITY           SKY/WX    TMP DP  RH WIND       PRES   REMARKS
JACKSON        FAIR      55  33  43 S7        30.24R
LAMBERTVILLE   MOCLDY    61  32  33 S5        30.26R
LANSING        MOCLDY    54  36  50 W5        30.24R
LAPEER         FAIR      51  34  51 S7        30.23S
MASON          MOCLDY    55  35  47 W3        30.23R
MONROE         MOCLDY    57  34  41 S6        30.24R
MT. CLEMENS    CLOUDY    45  36  69 S10       30.25R
PONTIAC        MOCLDY    55  33  43 SE6       30.24R
PORT HOPE        N/A     50  36  58 SE7       30.20S
PORT HURON     MOCLDY    50  34  53 SE8       30.26R
TRI CITIES     CLOUDY    55  37  50 W9        30.22R
TROY           PTCLDY    55  34  45 CALM      30.26R
SAGINAW HB     MOCLDY    54  36  50 W5        30.22R
YPSILANTI      MOCLDY    57  34  41 S7        30.25R
$$
MIZ043>046-050>051-056>058-064>065-071>073-077>080-180300-
SOUTHWEST LOWER MICHIGAN

CITY           SKY/WX    TMP DP  RH WIND       PRES   REMARKS
BATTLE CREEK   MOCLDY    53  36  52 NW5       30.24R
BENTON HARBOR  CLOUDY    50  36  58 CALM      30.25R
BIG RAPIDS     CLOUDY    47  37  67 NW6       30.22R
COLDWATER      PTCLDY    53  34  48 S3        30.24R
FREMONT        FAIR      45  36  70 W3        30.23R
HOLLAND        CLOUDY    49  37  63 CALM      30.26R
GRAND RAPIDS   CLOUDY    51  38  60 W6        30.24R
IONIA          FAIR      52  37  56 W6        30.23R
KALAMAZOO      MOCLDY    55  36  48 CALM      30.24R
LUDINGTON      CLOUDY    39  37  90 CALM      30.24R
MARSHALL       PTCLDY    54  35  48 SW5       30.23R
MOUNT PLEASANT CLOUDY    52  38  60 W7        30.21S
MUSKEGON       CLOUDY    45  35  68 NW8       30.24R
SOUTH HAVEN    CLOUDY    48  36  61 N6        30.25R
$$
MIZ016>042-180300-
NORTHERN LOWER MICHIGAN

CITY           SKY/WX    TMP DP  RH WIND       PRES   REMARKS
ALPENA         MOCLDY    39  31  72 VRB3      30.22R
BEAVER ISLAND  PTCLDY    32  30  93 W8        30.25R WCI  25
BELLAIRE       MOCLDY    39  33  78 CALM      30.24R
CADILLAC       CLOUDY    42  35  76 W3        30.21R
CHARLEVOIX     MOCLDY    36  32  85 W7        30.27R WCI  30
FRANKFORT      MOCLDY    36  32  87 CALM      30.25R
GAYLORD        CLOUDY    40  31  70 NW3       30.21R
GRAYLING       CLOUDY    41  29  61 CALM      30.23R
HARBOR SPRINGS MOCLDY    34  31  86 CALM      30.23R
HOUGHTON LAKE  CLOUDY    46  31  55 N6        30.22R
MANISTEE       MOCLDY    41  34  75 NW9       30.25R
OSCODA         MOCLDY    40  34  80 CALM      30.19R
PELLSTON       MOCLDY    34  29  82 CALM      30.23R
ROGERS CITY    MOCLDY    36  32  85 CALM      30.23S
TRAVERSE CITY  CLOUDY    41  33  73 NE7       30.23R
$$
MIZ007>008-015-180300-
EASTERN UPPER MICHIGAN

CITY           SKY/WX    TMP DP  RH WIND       PRES   REMARKS
KINROSS        CLOUDY    36  30  80 SE9       30.22S WCI  29
MACKINAC ISLAN CLOUDY    34  31  89 E7        30.22S WCI  28
NEWBERRY       CLEAR     30  28  94 W3        30.23R
S. S. MARIE    CLOUDY    37  26  64 SE7       30.22S WCI  32
$$
MIZ004>006-011>014-085-180300-
CENTRAL UPPER MICHIGAN

CITY           SKY/WX    TMP DP  RH WIND       PRES   REMARKS
MANISTIQUE     CLOUDY    32  31  95 CALM      30.24R
ESCANABA       CLOUDY    37  32  81 CALM      30.24R
MENOMINEE      CLOUDY    37  32  81 CALM      30.24S
SAWYER-GWINN   CLOUDY    34  32  93 W3        30.21S
$$
MIZ001>003-009>011-084-180300-
WESTERN UPPER MICHIGAN

CITY           SKY/WX    TMP DP  RH WIND       PRES   REMARKS
IRON MOUNTAIN  CLOUDY    36  31  82 NW5       30.22R WCI  32
HOUGHTON       FOG       31  29  92 W10       30.21R VSB 3/4 WCI  22
COPPER HARBOR    N/A     34  32  92 CALM      30.21R
IRONWOOD       CLOUDY    32  25  74 W3        30.24R
$$

ABBREVIATIONS USED IN REMARKS
   TC - TEMPERATURE IN CELSIUS
  WCI - WIND CHILL INDEX
   HX - HEAT INDEX
  VSB - VISIBILITY




USA.gov is the U.S. government's official web portal to all federal, state and local government web resources and services.